TAP21 LPPT-KEWR

Flight info

Callsign TAP21
Flight time N/A
Altitude 36000
Route ELNUB DCT BANAL/M085F360 DCT 45N020W 49N030W 50N040W 50N050W DCT ELSIR/N0495F360 DCT FROSS/N0484F380 DCT MIILS DCT CBIRD DCT HANAA FLOSI4
Aircraft A35K/H-SDE2E3GHIJ3J4J5LM1ORWXY/LB1D1

Departure

Time N/A
Airport Lisbon Humberto Delgado Airport (LPPT)

Arrival

Time 2026-04-26 02:58
Airport Newark Liberty International Airport (KEWR)
Time Latitude Longitude Altitude Speed Heading
2026-04-26 01:50 45.45558 -69.67521 36081 ft 367 kts 249°
2026-04-26 01:50 45.44293 -69.70746 36085 ft 378 kts 245°
2026-04-26 01:50 45.42872 -69.73953 36108 ft 388 kts 243°
2026-04-26 01:51 45.39927 -69.80427 36105 ft 392 kts 244°
2026-04-26 01:51 45.37049 -69.87012 36094 ft 391 kts 245°
2026-04-26 01:52 45.34250 -69.93627 36104 ft 389 kts 245°
2026-04-26 01:52 45.31481 -70.00229 36108 ft 389 kts 245°
2026-04-26 01:53 45.28702 -70.06838 36119 ft 395 kts 245°
2026-04-26 01:53 45.27273 -70.10242 36110 ft 408 kts 245°
2026-04-26 01:53 45.25792 -70.13760 36116 ft 421 kts 245°
2026-04-26 01:53 45.24266 -70.17376 36116 ft 433 kts 244°
2026-04-26 01:54 45.22697 -70.21080 36092 ft 440 kts 244°
2026-04-26 01:54 45.19551 -70.28452 36110 ft 438 kts 244°
2026-04-26 01:55 45.16395 -70.35830 36114 ft 437 kts 244°
2026-04-26 01:55 45.13239 -70.43210 36104 ft 437 kts 244°
2026-04-26 01:56 45.10085 -70.50576 36111 ft 437 kts 244°
2026-04-26 01:56 45.06946 -70.57883 36110 ft 437 kts 244°
2026-04-26 01:57 45.03782 -70.65231 36113 ft 437 kts 244°
2026-04-26 01:57 45.00613 -70.72571 36113 ft 437 kts 244°
2026-04-26 01:58 44.97440 -70.79901 36109 ft 437 kts 243°
2026-04-26 01:58 44.94266 -70.87214 36085 ft 437 kts 243°
2026-04-26 01:59 44.91150 -70.94375 36107 ft 436 kts 243°
2026-04-26 01:59 44.87970 -71.01663 36099 ft 436 kts 243°
2026-04-26 02:00 44.84748 -71.08909 36095 ft 438 kts 240°
2026-04-26 02:00 44.80838 -71.15574 36098 ft 442 kts 234°
2026-04-26 02:01 44.76793 -71.22028 36097 ft 442 kts 233°
2026-04-26 02:01 44.72720 -71.28500 36100 ft 442 kts 233°
2026-04-26 02:02 44.68637 -71.34972 36102 ft 442 kts 233°
2026-04-26 02:02 44.64556 -71.41423 36103 ft 441 kts 233°
2026-04-26 02:03 44.60478 -71.47855 36099 ft 440 kts 233°
2026-04-26 02:03 44.56407 -71.54262 36100 ft 439 kts 233°
2026-04-26 02:04 44.52334 -71.60660 36102 ft 439 kts 233°
2026-04-26 02:04 44.48257 -71.67048 36100 ft 439 kts 233°
2026-04-26 02:05 44.44206 -71.73380 36098 ft 438 kts 233°
2026-04-26 02:05 44.40140 -71.79721 36093 ft 437 kts 233°
2026-04-26 02:06 44.36074 -71.86049 36093 ft 437 kts 233°
2026-04-26 02:06 44.32004 -71.92369 36092 ft 437 kts 233°
2026-04-26 02:07 44.27934 -71.98672 36089 ft 436 kts 233°
2026-04-26 02:07 44.23874 -72.04949 36092 ft 436 kts 233°
2026-04-26 02:08 44.19836 -72.11177 36091 ft 436 kts 233°
2026-04-26 02:08 44.15767 -72.17440 36083 ft 435 kts 232°
2026-04-26 02:09 44.11701 -72.23682 36117 ft 434 kts 233°
2026-04-26 02:09 44.07644 -72.29899 36120 ft 434 kts 232°
2026-04-26 02:10 44.03578 -72.36115 36124 ft 434 kts 232°
2026-04-26 02:10 43.99510 -72.42320 36118 ft 433 kts 232°
2026-04-26 02:11 43.95482 -72.48449 36117 ft 432 kts 232°
2026-04-26 02:11 43.91434 -72.54598 36122 ft 431 kts 232°
2026-04-26 02:12 43.87386 -72.60736 36113 ft 431 kts 232°
2026-04-26 02:12 43.83337 -72.66858 36109 ft 430 kts 232°
2026-04-26 02:13 43.79293 -72.72958 36105 ft 429 kts 232°
2026-04-26 02:13 43.75251 -72.79046 36097 ft 430 kts 232°
2026-04-26 02:14 43.71202 -72.85127 36101 ft 430 kts 232°
2026-04-26 02:14 43.67156 -72.91192 36097 ft 429 kts 232°
2026-04-26 02:15 43.63117 -72.97238 36097 ft 428 kts 232°
2026-04-26 02:15 43.59078 -73.03267 36109 ft 427 kts 231°
2026-04-26 02:16 43.55038 -73.09286 36110 ft 427 kts 231°
2026-04-26 02:16 43.51000 -73.15289 36099 ft 427 kts 231°
2026-04-26 02:17 43.46983 -73.21246 36104 ft 427 kts 231°
2026-04-26 02:17 43.42936 -73.27237 36112 ft 427 kts 231°
2026-04-26 02:18 43.38887 -73.33218 36117 ft 427 kts 231°
2026-04-26 02:18 43.34837 -73.39188 36123 ft 426 kts 231°
2026-04-26 02:19 43.30797 -73.45130 36126 ft 425 kts 231°
2026-04-26 02:19 43.26752 -73.51067 36128 ft 425 kts 231°
2026-04-26 02:20 43.22733 -73.56956 36115 ft 425 kts 231°
2026-04-26 02:20 43.18018 -73.61918 36128 ft 440 kts 210°
2026-04-26 02:21 43.12157 -73.64587 35631 ft 442 kts 204°
2026-04-26 02:21 43.09212 -73.65809 34905 ft 442 kts 204°
2026-04-26 02:21 43.06276 -73.67036 34292 ft 438 kts 204°
2026-04-26 02:21 43.03371 -73.68256 33852 ft 437 kts 204°
2026-04-26 02:22 43.00456 -73.69487 33549 ft 438 kts 204°
2026-04-26 02:22 42.97551 -73.70712 32675 ft 437 kts 203°
2026-04-26 02:22 42.94609 -73.71960 31235 ft 450 kts 202°
2026-04-26 02:22 42.91560 -73.73255 29643 ft 467 kts 202°
2026-04-26 02:23 42.88480 -73.74550 28331 ft 459 kts 201°
2026-04-26 02:23 42.85453 -73.75815 27088 ft 452 kts 201°
2026-04-26 02:23 42.82484 -73.77057 25975 ft 442 kts 201°
2026-04-26 02:23 42.79600 -73.78267 25056 ft 437 kts 201°
2026-04-26 02:24 42.76681 -73.79495 24482 ft 440 kts 200°
2026-04-26 02:24 42.73772 -73.80719 24210 ft 435 kts 201°
2026-04-26 02:24 42.70901 -73.81993 24149 ft 433 kts 202°
2026-04-26 02:24 42.68047 -73.83291 24145 ft 433 kts 202°
2026-04-26 02:25 42.65191 -73.84584 24143 ft 432 kts 202°
2026-04-26 02:25 42.62334 -73.85872 24085 ft 431 kts 201°
2026-04-26 02:25 42.59482 -73.87153 24007 ft 431 kts 201°
2026-04-26 02:25 42.56635 -73.88430 23902 ft 430 kts 201°
2026-04-26 02:26 42.53789 -73.89703 23662 ft 429 kts 201°
2026-04-26 02:26 42.51911 -73.90543 23488 ft 429 kts 201°
2026-04-26 02:26 42.49121 -73.91784 23235 ft 415 kts 201°
2026-04-26 02:26 42.46418 -73.92986 22949 ft 401 kts 201°
2026-04-26 02:27 42.42976 -73.94516 22641 ft 383 kts 202°
2026-04-26 02:27 42.41286 -73.95268 22534 ft 374 kts 202°
2026-04-26 02:27 42.38850 -73.96350 22297 ft 364 kts 202°
2026-04-26 02:27 42.36454 -73.97418 22016 ft 361 kts 202°
2026-04-26 02:28 42.34094 -73.98469 21726 ft 360 kts 202°
2026-04-26 02:28 42.31718 -73.99526 21311 ft 359 kts 202°
2026-04-26 02:28 42.29352 -74.00576 20882 ft 357 kts 201°
2026-04-26 02:28 42.26913 -74.01664 20503 ft 385 kts 201°
2026-04-26 02:29 42.24304 -74.02826 20111 ft 399 kts 201°
2026-04-26 02:29 42.21649 -74.04004 19725 ft 403 kts 201°
2026-04-26 02:29 42.18985 -74.05179 19337 ft 402 kts 201°
2026-04-26 02:29 42.16332 -74.06345 18945 ft 400 kts 201°
2026-04-26 02:30 42.13690 -74.07508 18560 ft 398 kts 201°
2026-04-26 02:30 42.11061 -74.08666 18108 ft 396 kts 201°
2026-04-26 02:30 42.08450 -74.09815 17646 ft 393 kts 201°
2026-04-26 02:30 42.05852 -74.10956 17199 ft 391 kts 201°
2026-04-26 02:31 42.03273 -74.12090 16762 ft 388 kts 201°
2026-04-26 02:31 42.00711 -74.13213 16333 ft 386 kts 201°
2026-04-26 02:31 41.98194 -74.14318 15911 ft 384 kts 201°
2026-04-26 02:31 41.95660 -74.15427 15493 ft 382 kts 201°
2026-04-26 02:32 41.93136 -74.16531 15081 ft 380 kts 200°
2026-04-26 02:32 41.90647 -74.17620 14661 ft 371 kts 200°
2026-04-26 02:32 41.88226 -74.18677 14260 ft 360 kts 200°
2026-04-26 02:32 41.85874 -74.19703 13852 ft 351 kts 200°
2026-04-26 02:33 41.83584 -74.20707 13389 ft 342 kts 200°
2026-04-26 02:33 41.81349 -74.21681 12949 ft 333 kts 200°
2026-04-26 02:33 41.79162 -74.22632 12504 ft 326 kts 200°
2026-04-26 02:33 41.77011 -74.23569 12077 ft 323 kts 200°
2026-04-26 02:34 41.74912 -74.24483 11654 ft 318 kts 200°
2026-04-26 02:34 41.72829 -74.25389 11232 ft 311 kts 200°
2026-04-26 02:34 41.70778 -74.26281 10824 ft 308 kts 200°
2026-04-26 02:34 41.68745 -74.27166 10460 ft 306 kts 200°
2026-04-26 02:35 41.66728 -74.28043 10099 ft 302 kts 200°
2026-04-26 02:35 41.64750 -74.28906 9707 ft 295 kts 200°
2026-04-26 02:35 41.62819 -74.29743 9314 ft 288 kts 200°
2026-04-26 02:35 41.60956 -74.30549 8919 ft 282 kts 200°
2026-04-26 02:36 41.59104 -74.31351 8534 ft 276 kts 200°
2026-04-26 02:36 41.57288 -74.32136 8153 ft 272 kts 200°
2026-04-26 02:36 41.55497 -74.32910 7744 ft 269 kts 200°
2026-04-26 02:36 41.53718 -74.33681 7386 ft 267 kts 200°
2026-04-26 02:37 41.51959 -74.34442 7076 ft 263 kts 200°
2026-04-26 02:37 41.50215 -74.35195 6996 ft 263 kts 200°
2026-04-26 02:37 41.48480 -74.35944 6998 ft 262 kts 200°
2026-04-26 02:37 41.46749 -74.36694 6992 ft 261 kts 200°
2026-04-26 02:38 41.45013 -74.37442 6991 ft 261 kts 200°
2026-04-26 02:38 41.43301 -74.38179 6991 ft 261 kts 200°
2026-04-26 02:38 41.41571 -74.38924 6993 ft 261 kts 200°
2026-04-26 02:38 41.39839 -74.39675 6994 ft 261 kts 200°
2026-04-26 02:39 41.38108 -74.40418 6995 ft 261 kts 200°
2026-04-26 02:39 41.36375 -74.41161 6996 ft 261 kts 200°
2026-04-26 02:39 41.34644 -74.41904 7001 ft 261 kts 200°
2026-04-26 02:39 41.32913 -74.42646 7000 ft 260 kts 201°
2026-04-26 02:40 41.31198 -74.43382 7002 ft 258 kts 201°
2026-04-26 02:40 41.29485 -74.44117 7003 ft 258 kts 200°
2026-04-26 02:40 41.27779 -74.44854 7006 ft 258 kts 201°
2026-04-26 02:40 41.26066 -74.45595 7005 ft 258 kts 201°
2026-04-26 02:41 41.24354 -74.46324 7006 ft 258 kts 200°
2026-04-26 02:41 41.22661 -74.47045 7006 ft 258 kts 200°
2026-04-26 02:41 41.20951 -74.47774 7006 ft 259 kts 201°
2026-04-26 02:41 41.19239 -74.48505 7012 ft 258 kts 201°
2026-04-26 02:42 41.17527 -74.49232 6997 ft 259 kts 200°
2026-04-26 02:42 41.15815 -74.49965 7010 ft 258 kts 201°
2026-04-26 02:42 41.14108 -74.50696 7006 ft 258 kts 200°
2026-04-26 02:42 41.12407 -74.51424 6997 ft 255 kts 201°
2026-04-26 02:43 41.09025 -74.52861 7003 ft 254 kts 201°
2026-04-26 02:43 41.07335 -74.53567 7010 ft 255 kts 199°
2026-04-26 02:43 41.05578 -74.53973 7007 ft 257 kts 189°
2026-04-26 02:44 41.03789 -74.54150 7003 ft 259 kts 187°
2026-04-26 02:44 41.01991 -74.54301 6984 ft 259 kts 187°
2026-04-26 02:44 41.00217 -74.54454 7001 ft 259 kts 187°
2026-04-26 02:44 40.98426 -74.54610 6844 ft 255 kts 187°
2026-04-26 02:45 40.96652 -74.54763 6365 ft 255 kts 187°
2026-04-26 02:45 40.94885 -74.54928 6000 ft 255 kts 186°
2026-04-26 02:45 40.93121 -74.55095 5665 ft 253 kts 185°
2026-04-26 02:45 40.91378 -74.55259 5401 ft 250 kts 185°
2026-04-26 02:46 40.89642 -74.55422 5108 ft 249 kts 184°
2026-04-26 02:46 40.87921 -74.55581 4814 ft 248 kts 183°
2026-04-26 02:46 40.86196 -74.55744 4519 ft 248 kts 182°
2026-04-26 02:46 40.84466 -74.55903 4208 ft 249 kts 181°
2026-04-26 02:47 40.82730 -74.56001 3924 ft 249 kts 176°
2026-04-26 02:47 40.80987 -74.55929 3877 ft 251 kts 174°
2026-04-26 02:47 40.79260 -74.55828 3863 ft 251 kts 174°
2026-04-26 02:47 40.77515 -74.55731 3832 ft 251 kts 175°
2026-04-26 02:48 40.72787 -74.55478 3851 ft 251 kts 174°
2026-04-26 02:48 40.65864 -74.55082 3797 ft 248 kts 171°
2026-04-26 02:48 40.59119 -74.53235 3563 ft 248 kts 163°
2026-04-26 02:48 40.56576 -74.52498 3545 ft 249 kts 163°
2026-04-26 02:49 40.54883 -74.52006 3533 ft 248 kts 163°
2026-04-26 02:49 40.53216 -74.51522 3514 ft 248 kts 163°
2026-04-26 02:49 40.51525 -74.51032 3489 ft 249 kts 163°
2026-04-26 02:49 40.49819 -74.50540 3475 ft 246 kts 163°
2026-04-26 02:50 40.48172 -74.50065 3457 ft 245 kts 163°
2026-04-26 02:50 40.46526 -74.49421 3453 ft 242 kts 153°
2026-04-26 02:50 40.45148 -74.48261 3352 ft 235 kts 135°
2026-04-26 02:50 40.44218 -74.46550 2914 ft 231 kts 110°
2026-04-26 02:51 40.44000 -74.44481 2786 ft 232 kts 85°
2026-04-26 02:51 40.44510 -74.42464 2777 ft 236 kts 63°
2026-04-26 02:51 40.45632 -74.40878 2787 ft 244 kts 38°
2026-04-26 02:51 40.47239 -74.40108 2788 ft 251 kts 12°
2026-04-26 02:52 40.48952 -74.40076 2781 ft 240 kts
2026-04-26 02:52 40.50505 -74.39674 2785 ft 219 kts 29°
2026-04-26 02:52 40.51698 -74.38530 2793 ft 209 kts 52°
2026-04-26 02:52 40.52414 -74.36914 2800 ft 204 kts 73°
2026-04-26 02:53 40.52600 -74.35085 2798 ft 203 kts 93°
2026-04-26 02:53 40.52396 -74.33237 2803 ft 205 kts 100°
2026-04-26 02:53 40.52128 -74.31392 2802 ft 205 kts 98°
2026-04-26 02:53 40.52112 -74.29523 2799 ft 206 kts 81°
2026-04-26 02:54 40.52614 -74.27787 2804 ft 208 kts 60°
2026-04-26 02:54 40.53624 -74.26404 2808 ft 214 kts 39°
2026-04-26 02:54 40.54938 -74.25461 2808 ft 216 kts 30°
2026-04-26 02:54 40.56310 -74.24625 2808 ft 218 kts 30°
2026-04-26 02:55 40.57686 -74.23793 2807 ft 217 kts 29°
2026-04-26 02:55 40.59062 -74.22945 2772 ft 218 kts 30°
2026-04-26 02:55 40.60490 -74.21991 1807 ft 242 kts 32°
2026-04-26 02:55 40.61895 -74.21015 1753 ft 220 kts 31°
2026-04-26 02:56 40.63251 -74.20136 1199 ft 214 kts 27°
2026-04-26 02:56 40.64580 -74.19402 834 ft 199 kts 26°
2026-04-26 02:56 40.65771 -74.18691 524 ft 176 kts 28°
2026-04-26 02:56 40.66799 -74.18042 302 ft 154 kts 24°
2026-04-26 02:57 40.67713 -74.17457 111 ft 138 kts 26°
2026-04-26 02:57 40.68529 -74.16936 27 ft 116 kts 26°
2026-04-26 02:57 40.69129 -74.16554 30 ft 78 kts 25°
2026-04-26 02:57 40.69537 -74.16307 29 ft 50 kts 13°
2026-04-26 02:58 40.69723 -74.16300 27 ft 19 kts 354°
2026-04-26 02:58 40.69827 -74.16325 27 ft 0 kts 332°
2026-04-26 02:58 40.69866 -74.16397 26 ft 25 kts 298°
2026-04-26 02:59 40.69901 -74.16591 27 ft 15 kts 248°
2026-04-26 02:59 40.69831 -74.16649 27 ft 13 kts 204°
2026-04-26 02:59 40.69740 -74.16706 27 ft 16 kts 205°
2026-04-26 02:59 40.69632 -74.16772 28 ft 18 kts 205°
2026-04-26 03:00 40.69511 -74.16850 28 ft 21 kts 206°
2026-04-26 03:00 40.69372 -74.16941 28 ft 24 kts 206°
2026-04-26 03:00 40.69230 -74.17051 28 ft 21 kts 238°
2026-04-26 03:00 40.69223 -74.17092 28 ft 11 kts 262°
2026-04-26 03:01 40.69189 -74.17189 28 ft 12 kts 245°
2026-04-26 03:01 40.69185 -74.17293 28 ft 7 kts 273°
2026-04-26 03:01 40.69187 -74.17326 28 ft 0 kts 274°
2026-04-26 03:02 40.55436 -74.25155 2801 ft 217 kts 30°
2026-04-26 03:02 40.58986 -74.22994 2785 ft 218 kts 30°
2026-04-26 03:02 40.62216 -74.20794 1612 ft 218 kts 31°
2026-04-26 03:03 40.63622 -74.19922 1077 ft 211 kts 27°
2026-04-26 03:03 40.65068 -74.19127 698 ft 191 kts 27°
2026-04-26 03:03 40.66384 -74.18301 392 ft 161 kts 27°
2026-04-26 03:03 40.67505 -74.17591 150 ft 142 kts 25°
2026-04-26 03:04 40.68406 -74.17013 28 ft 122 kts 25°
2026-04-26 03:04 40.69133 -74.16551 30 ft 78 kts 25°
2026-04-26 03:04 40.69635 -74.16292 28 ft 27 kts
2026-04-26 03:04 40.69806 -74.16314 27 ft 16 kts 347°
2026-04-26 03:05 40.69784 -74.16678 27 ft 15 kts 205°
2026-04-26 03:05 40.69896 -74.16715 27 ft 0 kts 147°
2026-04-26 03:05 40.69185 -74.17221 28 ft 12 kts 264°
2026-04-26 03:05 40.69850 -74.16359 28 ft 19 kts 301°
2026-04-26 03:06 40.54840 -74.25522 2799 ft 216 kts 30°
2026-04-26 03:06 40.55424 -74.25058 2798 ft 217 kts 358°
2026-04-26 03:06 40.67050 -74.17775 238 ft 223 kts 211°
2026-04-26 03:06 40.67283 -74.17627 182 ft 231 kts 325°
2026-04-26 03:07 40.68185 -74.17047 697 ft 426 kts 300°
2026-04-26 03:07 40.68679 -74.16840 28 ft 107 kts 26°